Flag for U.S.A. Weather past 2 weeks in Visalia, California, U.S.A.

Now
93 °F

Sunny.


Feels Like: 91 °F
Forecast: 65 / 98 °F
Wind: 8 mph from Northwest

Location: Visalia Municipal

Current Time: Jul 24, 2014 at 5:03:56 PM

Latest Report: Jul 24, 2014 at 4:35 PM


Visibility: 10 mi

Pressure: 29.81 "Hg

Humidity: 28%

Dew point: 55 °F

Location of VisaliaLocation

Historic Weather in Visalia — Graph

°F

Visalia temperature yesterday

Maximum temperature yesterday: 90 °F (at 4:35 PM)
Minimum temperature yesterday: 64 °F (at 5:35 AM)
Average temperature yesterday: 77 °F

Past Weeks' High & Low Weather Summary

 TemperatureHumidityPressure
High100 °F (Jul 9, 4:15 PM)78% (Jul 13, 6:15 AM)30.13 "Hg (Jul 13, 6:15 AM)
Low63 °F (Jul 12, 6:15 AM)16% (Jul 9, 4:35 PM)29.73 "Hg (Jul 9, 6:15 PM)
Average81 °F51%29.90 "Hg
* Reported Jul 9 3:15 PM — Jul 24 3:55 PM, Visalia, Weather by CustomWeather, © 2014

Note: Actual official high and low records may vary slightly from our data, if they occured in-between our weather recording intervals... More about our weather records

Advertising

Visalia weather history for previous 24 hours

 ConditionsComfort  
Time TempWeatherWind HumidityBarometerVisibility
3:55 PM
Jul 24
93 °FSunny.10 mph28%29.82 "Hg10 mi
3:35 PM93 °FSunny.7 mph30%29.83 "Hg10 mi
3:15 PM91 °FSunny.9 mph30%29.84 "Hg10 mi
2:55 PM93 °FSunny.8 mph30%29.85 "Hg3 mi
2:35 PM91 °FSunny.10 mph36%29.86 "Hg10 mi
1:55 PM90 °FSunny.8 mph38%29.87 "Hg9 mi
1:35 PM88 °FSunny.7 mph40%29.88 "Hg9 mi
1:15 PM88 °FSunny.9 mph43%29.89 "Hg10 mi
12:55 PM86 °FSunny.7 mph43%29.90 "Hg10 mi
12:35 PM84 °FSunny.8 mph48%29.92 "Hg10 mi
12:15 PM84 °FSunny.7 mph48%29.92 "Hg10 mi
11:55 AM84 °FSunny.6 mph48%29.94 "Hg10 mi
11:35 AM82 °FSunny.5 mph48%29.94 "Hg10 mi
11:15 AM81 °FSunny.7 mph51%29.95 "Hg10 mi
10:55 AM81 °FSunny.3 mph51%29.96 "Hg10 mi
10:35 AM79 °FSunny.5 mph54%29.96 "Hg10 mi
10:15 AM79 °FSunny.5 mph54%29.96 "Hg10 mi
9:55 AM77 °FSunny.6 mph54%29.97 "Hg10 mi
9:35 AM75 °FSunny.No wind61%29.97 "Hg10 mi
8:55 AM72 °FSunny.No wind61%29.98 "Hg10 mi
8:35 AM72 °FSunny.3 mph61%29.98 "Hg10 mi
8:15 AM70 °FSunny.No wind64%29.98 "Hg9 mi
7:55 AM68 °FSunny.No wind69%29.99 "Hg8 mi
7:35 AM66 °FSunny.No wind68%29.99 "Hg8 mi
7:15 AM64 °FSunny.No wind78%29.98 "Hg10 mi
6:55 AM63 °FClear.No wind77%29.98 "Hg10 mi
6:35 AM63 °FClear.No wind77%29.98 "Hg10 mi
5:55 AM63 °FClear.No wind73%29.97 "Hg10 mi
5:35 AM63 °FClear.3 mph73%29.97 "Hg10 mi
5:15 AM63 °FClear.No wind73%29.97 "Hg10 mi
4:55 AM63 °FClear.No wind73%29.96 "Hg10 mi
4:35 AM64 °FClear.No wind68%29.96 "Hg10 mi
4:15 AM66 °FClear.No wind68%29.96 "Hg10 mi
3:55 AM64 °FClear.3 mph68%29.96 "Hg10 mi
3:35 AM66 °FClear.3 mph68%29.97 "Hg10 mi
2:55 AM70 °FClear.9 mph60%29.97 "Hg10 mi
2:35 AM72 °FClear.9 mph57%29.97 "Hg10 mi
2:15 AM72 °FClear.12 mph57%29.98 "Hg10 mi
1:55 AM73 °FClear.9 mph53%29.98 "Hg10 mi
1:35 AM72 °FClear.10 mph57%29.98 "Hg10 mi
1:15 AM72 °FClear.9 mph61%29.98 "Hg10 mi
12:55 AM72 °FClear.8 mph61%29.98 "Hg10 mi
12:35 AM72 °FClear.8 mph57%29.98 "Hg10 mi
12:15 AM72 °FClear.8 mph61%29.98 "Hg10 mi
11:55 PM
Jul 23
73 °FClear.8 mph57%29.98 "Hg10 mi
11:35 PM73 °FClear.9 mph57%29.98 "Hg10 mi
10:35 PM75 °FClear.8 mph54%29.98 "Hg10 mi
9:55 PM75 °FClear.8 mph54%29.96 "Hg10 mi
9:35 PM77 °FClear.7 mph51%29.96 "Hg10 mi
8:55 PM79 °FSunny.6 mph51%29.95 "Hg8 mi
8:35 PM81 °FSunny.7 mph48%29.95 "Hg10 mi
7:55 PM82 °FSunny.8 mph45%29.94 "Hg10 mi
7:35 PM84 °FSunny.9 mph43%29.94 "Hg10 mi
7:15 PM86 °FSunny.9 mph40%29.94 "Hg10 mi
6:55 PM86 °FSunny.10 mph43%29.94 "Hg10 mi
6:35 PM88 °FSunny.10 mph40%29.94 "Hg10 mi
6:15 PM88 °FSunny.10 mph40%29.94 "Hg10 mi
5:55 PM88 °FSunny.10 mph43%29.94 "Hg10 mi
5:35 PM88 °FSunny.13 mph43%29.95 "Hg10 mi
5:15 PM88 °FSunny.12 mph43%29.95 "Hg10 mi
Weather by CustomWeather, © 2014

See weather overviewHow to use our weather pages